Weather History for Atlanta Fulton, GA

Change the Weather History Date:

Thursday, October 31, 2013

  Actual Average Record
Temperature  
Mean Temperature 65 °F 58 °F  
Max Temperature 75 °F 69 °F 82 °F (2004)
Min Temperature 55 °F 47 °F 33 °F (2008)
Degree Days  
Heating Degree Days 0 8  
Month to date heating degree days 115 133  
Since 1 July heating degree days 115 143  
Cooling Degree Days 0 1  
Month to date cooling degree days 54 56  
Year to date cooling degree days 1616 1737  
Growing Degree Days 15 (Base 50)    
Moisture  
Dew Point 57 °F    
Average Humidity 80    
Maximum Humidity 100    
Minimum Humidity 60    
Precipitation  
Precipitation T in 0.09 in 0.81 in (1967)
Month to date precipitation 3.48 3.61  
Year to date precipitation 43.01  
Snow  
Snow 0.00 in - - ()
Month to date snowfall 0.0  
Since 1 July snowfall 0.0  
Since 1 September snowfall 0.0  
Snow Depth 0.00 in    
Sea Level Pressure  
Sea Level Pressure 30.04 in    
Wind  
Wind Speed 6 mph (South)    
Max Wind Speed 25 mph    
Max Gust Speed 35 mph    
Visibility 10 miles    
Events      
T = Trace of Precipitation, MM = Missing Value Source: NWS Daily Summary

Daily Weather History Graph

Daily Weather History Graph

Search for Another Location

Airport:

Trip Planner

Search our weather history database for the weather conditions in past years. The results will help you decide how hot, cold, wet, or windy it might be!

Date:

Astronomy

Oct. 31, 2013 Rise Set
Actual Time 7:56 AM EDT 6:46 PM EDT
Civil Twilight 7:30 AM EDT 7:12 PM EDT
Nautical Twilight 7:01 AM EDT 7:41 PM EDT
Astronomical Twilight 6:32 AM EDT 8:10 PM EDT
Moon 4:53 AM EDT (10/31) 4:57 PM EDT (10/31)
Length of Visible Light 11h 41m
Length of Day
10h 49m
Waning Crescent, 10% of the Moon is Illuminated
Oct 31
Waning Crescent
Nov 3
New
Nov 10
First Quarter
Nov 17
Full
Nov 25
Last Quarter

Hourly Weather History & Observations

Time (EDT) Temp. Dew Point Humidity Pressure Visibility Wind Dir Wind Speed Gust Speed Precip Events Conditions
12:53 AM 57.9 °F 57.0 °F 97% 30.16 in 7.0 mi Calm Calm - N/A   Clear
1:53 AM 57.9 °F 55.9 °F 93% 30.15 in 8.0 mi Calm Calm - N/A   Clear
2:53 AM 55.0 °F 54.0 °F 96% 30.13 in 6.0 mi Calm Calm - N/A   Clear
3:53 AM 64.0 °F 53.1 °F 67% 30.12 in 10.0 mi Variable 4.6 mph - N/A   Clear
4:53 AM 60.1 °F 54.0 °F 80% 30.11 in 10.0 mi Variable 3.5 mph - N/A   Clear
5:53 AM 63.0 °F 53.1 °F 70% 30.12 in 10.0 mi South 3.5 mph - N/A   Clear
6:53 AM 59.0 °F 54.0 °F 83% 30.12 in 10.0 mi Calm Calm - N/A   Clear
7:53 AM 57.0 °F 54.0 °F 89% 30.11 in 10.0 mi Calm Calm - N/A   Clear
8:53 AM 60.1 °F 54.0 °F 80% 30.11 in 10.0 mi Calm Calm - N/A   Mostly Cloudy
9:10 AM 60.8 °F 55.4 °F 82% 30.12 in 10.0 mi Calm Calm - N/A   Overcast
9:32 AM 64.4 °F 53.6 °F 68% 30.12 in 10.0 mi Variable 3.5 mph - N/A   Scattered Clouds
9:53 AM 64.9 °F 54.0 °F 68% 30.10 in 10.0 mi South 9.2 mph - N/A   Mostly Cloudy
10:10 AM 66.2 °F 55.4 °F 68% 30.11 in 10.0 mi Variable 4.6 mph - N/A   Overcast
10:29 AM 66.2 °F 55.4 °F 68% 30.11 in 10.0 mi South 8.1 mph - N/A   Overcast
10:53 AM 66.9 °F 57.0 °F 70% 30.08 in 10.0 mi SSE 8.1 mph - N/A   Mostly Cloudy
11:53 AM 70.0 °F 60.1 °F 71% 30.07 in 10.0 mi South 9.2 mph - N/A   Mostly Cloudy
12:53 PM 71.1 °F 60.1 °F 68% 30.06 in 10.0 mi SSW 8.1 mph - N/A   Mostly Cloudy
1:53 PM 73.9 °F 61.0 °F 64% 30.01 in 10.0 mi South 8.1 mph 18.4 mph N/A   Clear
2:53 PM 73.9 °F 61.0 °F 64% 29.98 in 10.0 mi South 9.2 mph - N/A   Partly Cloudy
3:53 PM 75.0 °F 61.0 °F 62% 29.94 in 10.0 mi South 9.2 mph 18.4 mph N/A   Scattered Clouds
4:53 PM 75.0 °F 62.1 °F 64% 29.91 in 10.0 mi South 6.9 mph - N/A   Scattered Clouds
5:53 PM 73.9 °F 60.1 °F 62% 29.90 in 10.0 mi South 5.8 mph - N/A   Overcast
6:53 PM 73.0 °F 61.0 °F 66% 29.91 in 10.0 mi South 3.5 mph - N/A   Overcast
7:53 PM 73.0 °F 59.0 °F 61% 29.91 in 10.0 mi SSW 8.1 mph - N/A   Overcast
8:53 PM 72.0 °F 59.0 °F 64% 29.91 in 10.0 mi South 6.9 mph - N/A   Overcast
9:53 PM 71.1 °F 60.1 °F 68% 29.89 in 10.0 mi South 5.8 mph - N/A   Mostly Cloudy
10:53 PM 71.1 °F 59.0 °F 66% 29.88 in 10.0 mi South 10.4 mph 19.6 mph N/A   Clear
11:53 PM 71.1 °F 60.1 °F 68% 29.87 in 10.0 mi South 10.4 mph 19.6 mph N/A   Clear